Regional Weather Roundup
Issued by NWS

Home | Current Version | Previous Version | Graphics & Text | Print | Product List | Glossary On
Versions: 1 2 3 4 5 6 7 8 9 10 11 12 13 14 15 16 17 18 19 20 21 22 23 24 25 26 27 28 29 30 31 32 33 34 35 36 37 38 39 40 41 42 43 44 45 46 47 48 49 50
000
ASUS43 KOAX 170210
RWRNE

WEATHER ROUNDUP FOR NEBRASKA
NATIONAL WEATHER SERVICE OMAHA NE
900 PM CDT WED AUG 16 2017

NOTES: SATELLITE DATA IS BEING USED TO AUGMENT CLOUD COVER ABOVE
       12000 FEET.
       "FAIR" INDICATES FEW OR NO CLOUDS BELOW 12,000 FEET WITH NO
       SIGNIFICANT WEATHER AND/OR OBSTRUCTIONS TO VISIBILITY.


NEZ001>004-019>022-054>056-170300-
NEBRASKA PANHANDLE

CITY           SKY/WX    TMP DP  RH WIND       PRES   REMARKS
SCOTTSBLUFF    CLEAR     69  53  56 SE7       30.06R
ALLIANCE       CLEAR     65  51  60 CALM      30.04S
CHADRON        CLEAR     68  55  63 SE6       30.00S
GORDON         FAIR      66  53  62 CALM      30.02R
KIMBALL        CLEAR     62  52  69 E6        30.12R
SIDNEY         CLEAR     64  49  57 NE7       30.10R
$$

NEZ057>060-069>072-079>082-170300-
SOUTHWEST NEBRASKA

CITY           SKY/WX    TMP DP  RH WIND       PRES   REMARKS
NORTH PLATTE   CLEAR     63  58  83 W5        29.99R
IMPERIAL       CLEAR     65  56  72 N8        30.03R
LEXINGTON      CLEAR     64  60  86 NW5       29.96S
MCCOOK         CLEAR     67  61  81 NW6       29.98R
OGALLALA       CLEAR     65  55  70 N5        30.03R
$$

NEZ005>010-023>029-035>040-094-170300-
NORTH CENTRAL NEBRASKA

CITY           SKY/WX    TMP DP  RH WIND       PRES   REMARKS
VALENTINE      CLEAR     67  54  63 N7        29.95R
AINSWORTH      CLEAR     64  58  80 NW6       29.95R
BROKEN BOW     CLEAR     65  61  87 CALM      29.94S
O`NEILL        CLOUDY    64  62  93 NW10      29.89S
ORD            CLEAR     63  59  87 W3        29.90R
THEDFORD       CLEAR     65  55  69 NW3       29.98R
$$

NEZ041-046>049-061>064-073>077-083>087-170300-
SOUTH CENTRAL NEBRASKA

CITY           SKY/WX    TMP DP  RH WIND       PRES   REMARKS
GRAND ISLAND   PTCLDY    66  64  93 NW7       29.90R
AURORA         PTCLDY    66  65  95 NW6       29.88S
HASTINGS       MOCLDY    68  61  78 NW9       29.92R
HEBRON         CLOUDY    71  65  82 NW8       29.88R
HOLDREGE       CLEAR     64  60  86 NW6       29.94R
KEARNEY        PTCLDY    66  61  84 NW7       29.93S
YORK           MOCLDY    66  64  94 NW8       29.88R
$$

NEZ011>018-030>034-042>045-170300-
NORTHEAST NEBRASKA

CITY           SKY/WX    TMP DP  RH WIND       PRES   REMARKS
NORFOLK        CLEAR     65  60  84 NW13      29.83R
ALBION         PTCLDY    67  61  81 NW12      29.88R
BLAIR          CLEAR     70  67  89 SW6       29.80S
COLUMBUS       PTCLDY    67  61  81 W8        29.87R
FREMONT        CLOUDY    70  65  86 W12       29.82R
TEKAMAH        CLOUDY    71  65  81 W7        29.78R
WAYNE          CLOUDY    67  64  91 W17G23    29.81R
$$

NEZ050>053-065>068-078-088>093-170300-
SOUTHEAST NEBRASKA

CITY           SKY/WX    TMP DP  RH WIND       PRES   REMARKS
LINCOLN        PTCLDY    73  64  73 NW12      29.84R
OMAHA EPPLEY   PTCLDY    74  65  73 W6        29.79R
BEATRICE       CLEAR     74  67  78 W3        29.83R
FALLS CITY     CLOUDY    75  66  73 W6        29.81R
NEBRASKA CITY  CLOUDY    73  70  90 W5        29.82R
PLATTSMOUTH    CLEAR     73  65  78 CALM      29.81R
$$

NEZ044-045-051>053-067-170300-
OMAHA AREA

CITY           SKY/WX    TMP DP  RH WIND       PRES   REMARKS
OMAHA EPPLEY   PTCLDY    74  65  73 W6        29.79R
BLAIR          CLEAR     70  67  89 SW6       29.80S
FREMONT        CLOUDY    70  65  86 W12       29.82R
MILLARD        PTCLDY    74  67  79 W7        29.80R
OFFUTT AFB     PTCLDY    74  64  69 NW6       29.79R
PLATTSMOUTH    CLEAR     73  65  78 CALM      29.81R
WAHOO          FAIR      70  64  82 W12       29.83R
$$




USA.gov is the U.S. government's official web portal to all federal, state and local government web resources and services.